Погода в Штутгарте

Германия     48°46′31″N   9°11′04″E
темп.,
°C
ветер,
м/с
пор.,
м/с
влажн.,
%
обл.,
%
осадки,
мм/ч
давл.,
гПа
погр.,
м
17 апреля, сб
сб1723:00+3св257795 0.0 1025296
02:00+2св1380100 0.0 1024227
05:00+1св1188100 0.0 102451
08:00+2св138785 0.0 1024276
11:00+6ссв246456 0.1 10231065
14:00+10с454163 0.1 10201764
17:00+8ссв456093 0.0 10201179
20:00+6св357497 0.0 1020668
18 апреля, вс
вс1823:00+4св2389100 0.1 1022513
02:00+4св1395100 0.3 1021520
05:00+3ссв1396100 0.1 1020415
08:00+3св1397100 0.3 1021425
11:00+4юв1192100 0.1 1021429
14:00+6ссз0177100 0.1 1021591
17:00+6сз127596 0.1 1020652
20:00+6зсз128394 0.1 1020106
19 апреля, пн
пн1923:00+4юз119343 0.0 102122
02:00+3ююз119371 0.0 102137
05:00+2юз129358 0.0 102151
08:00+3ююз1285100 0.0 1021155
11:00+9в016126 0.0 1020792
14:00+12св224964 0.1 10181550
17:00+12ссв124676 0.1 10171638
20:00+9всв2468100 0.2 1017188
20 апреля, вт
вт2023:00+8юв017359 0.0 101721
02:00+6ююз118318 0.0 101711
05:00+5юз118495 0.0 101736
08:00+6ю117997 0.0 1017115
11:00+10ссз016660 0.0 1017742
14:00+14св125156 0.3 10151531
17:00+14в225412 0.8 10141291
20:00+11всв11645 0.9 101529
21 апреля, ср
ср2123:00+8ююв11765 0.0 101611
02:00+6ю11825 0.0 101719
05:00+5ю11855 0.0 101730
08:00+7ююз12772 0.0 1018121
11:00+13зюз11562 0.0 1018717
14:00+16сз22395 0.0 10161918
17:00+15сз4448100 0.1 10161413
20:00+10ссз4983100 2.0 1018505